Date,TemperatureHighF,TemperatureAvgF,TemperatureLowF,DewpointHighF,DewpointAvgF,DewpointLowF,HumidityHigh,HumidityAvg,HumidityLow,PressureMaxIn,PressureMinIn,WindSpeedMaxMPH,WindSpeedAvgMPH,GustSpeedMaxMPH,PrecipitationSumIn
2013-3-1,64.3,45.3,34.0,29.0,22.7,19.9,61,42,25,30.42,30.35,4,0,4,0.00
2013-3-2,68.9,47.6,30.1,31.8,25.1,20.7,72,45,20,30.41,30.19,8,1,8,0.00
2013-3-3,70.2,53.5,39.4,26.5,22.8,18.8,58,32,16,30.19,29.86,12,3,12,0.13
2013-3-4,53.5,35.0,20.2,34.5,22.4,12.5,74,61,41,30.34,29.88,7,1,7,0.02
2013-3-5,69.1,29.9,11.9,30.6,16.4,5.9,80,61,23,30.37,30.26,3,0,3,0.07
2013-3-6,84.1,40.4,18.4,37.6,22.1,13.1,83,56,11,30.26,30.01,4,0,4,0.00
2013-3-7,89.1,48.8,28.1,34.7,26.2,19.4,74,48,12,30.14,30.03,6,1,6,0.00
2013-3-8,66.4,41.0,30.1,37.0,28.4,21.6,79,63,32,30.14,29.88,3,0,3,0.00
2013-3-9,36.4,32.5,24.5,32.8,27.8,18.0,91,83,72,30.22,29.84,2,0,2,0.11
2013-3-10,70.6,33.1,12.6,35.1,18.7,7.8,84,60,23,30.26,30.16,6,1,6,0.36
2013-3-11,64.6,43.4,32.8,31.0,22.1,14.9,78,45,22,30.29,30.09,13,3,13,0.00
2013-3-12,64.4,36.0,28.3,35.6,26.0,21.5,86,69,30,30.42,30.28,5,0,5,0.18
2013-3-13,29.7,28.8,28.1,24.6,23.4,22.2,83,80,78,30.37,30.31,4,0,4,0.00
2013-3-14,54.4,48.8,45.5,26.1,24.2,22.5,46,38,29,30.33,30.29,2,0,2,0.00
2013-3-15,82.4,65.9,49.3,26.5,22.0,16.7,39,20,8,30.29,30.07,14,4,14,0.00
2013-3-16,65.5,49.0,37.1,38.6,30.7,26.1,71,51,28,30.18,30.00,14,1,14,0.00
2013-3-17,64.6,44.5,29.2,30.0,22.9,9.6,76,47,13,30.03,29.76,22,3,24,0.00
2013-3-18,57.6,41.4,32.8,17.6,11.7,6.2,39,30,16,30.11,30.02,16,4,16,0.00
2013-3-19,71.5,46.4,29.0,16.0,6.3,-8.4,45,20,1,30.47,30.09,15,3,15,0.00
2013-3-20,64.4,39.9,20.5,26.3,18.9,10.4,73,46,22,30.45,29.93,9,1,9,0.00
2013-3-21,77.8,47.4,36.5,41.7,22.6,7.7,59,39,13,30.01,29.74,15,3,15,0.00
2013-3-22,47.2,34.4,28.4,29.6,15.9,9.2,85,49,31,30.02,29.88,10,1,10,0.00
2013-3-23,30.6,23.7,11.3,22.1,16.4,5.2,87,74,62,30.29,30.06,2,0,2,0.01
2013-3-24,53.5,29.2,5.4,26.2,15.3,0.0,79,58,29,30.32,30.20,5,0,5,0.12
2013-3-25,62.8,29.8,15.5,23.7,14.5,8.6,80,57,17,30.37,30.29,6,1,6,0.21
2013-3-26,70.6,35.5,16.2,38.3,20.5,8.4,75,57,28,30.29,30.07,5,0,5,0.00
2013-3-27,57.6,39.1,29.0,34.3,28.2,21.6,76,66,39,30.24,30.15,2,0,2,0.00
2013-3-28,88.2,50.2,31.1,39.1,31.6,25.7,85,56,15,30.27,30.20,7,1,7,0.00
2013-3-29,71.3,52.9,35.5,34.4,29.6,25.7,77,45,21,30.29,30.21,14,2,14,0.00
2013-3-30,70.0,51.3,34.9,37.4,29.9,20.5,75,49,17,30.37,30.18,12,1,12,0.00
2013-3-31,100.8,54.9,29.5,35.1,26.7,13.8,85,45,7,30.36,30.11,11,1,11,0.00